Location: Newark
(25.0000°N, 73.5000°E)
Time: 01:53:22
(UTC+00:00)

ISS - Pass Details

Date: 21 June 2021
Orbit: 419 x 421 km, 51.6° (Epoch: 03 August)

Event Time Altitude Azimuth Distance (km) Brightness Sun altitude
Exits shadow 23:46:59 - 223° (SW) 1,646 -1.4 -6.9°
Reaches altitude 10° 23:47:22 10° 224° (SW) 1,489 -1.6 -6.8°
Maximum altitude 23:50:42 79° 312° (NW) 428 -3.8 -6.1°
Drops below altitude 10° 23:54:03 10° 38° (NE) 1,493 0.4 -5.5°
Sets 23:56:09 0° 40° (NE) 2,358 1.6 -5.1°
